User: anonymous
Location: Caltech
(34.1382°N, 118.1253°W)
Time: 14:29:17
(UTC-07:00)
Language:

Cosmos 2322 - Orbit

View from above orbital plane
View from above orbital plane
View from above satellite
View from above satellite

Ground track
Ground track

The orbit data is extracted from the following two-line orbital elements,

1 23704U 95058A   14245.51410561 -.00000002  00000-0  24536-4 0   956
2 23704 070.9863 018.7315 0010630 205.3233 225.4827 14.13250616971910
Epoch (UTC): 02 September 2014 12:20:18
Eccentricity: 0.0010630
inclination: 70.9863°
perigee height: 840 km
apogee height: 856 km
right ascension of ascending node: 18.7315°
argument of perigee: 205.3233°
revolutions per day: 14.13250616
mean anomaly at epoch: 225.4827°
orbit number at epoch: 97191

The dashed part of the orbit path shows where the satellite is in the earth's shadow,  

DLR